Flag for Germany Weather past 2 weeks in Homburg (Saar), Saarland, Germany

Now
57 °F

Light rain. Scattered clouds.


Feels Like: 56 °F
Forecast: 43 / 60 °F
Wind: 6 mph from Southwest

Location: Zweibrucken - Rheinland-Pfalz

Current Time: Oct 20, 2014 at 8:55:04 PM

Latest Report: Oct 20, 2014 at 8:20 PM


Visibility: 6 mi

Pressure: 30.04 "Hg

Humidity: 94%

Dew point: 55 °F

Location of Homburg (Saar)Location

Historic Weather in Homburg (Saar) — Graph

°F

Homburg (Saar) temperature yesterday

Maximum temperature yesterday: 70 °F (at 2:50 PM)
Minimum temperature yesterday: 54 °F (at 12:50 AM)
Average temperature yesterday: 64 °F

Past Weeks' High & Low Weather Summary

 TemperatureHumidityPressure
High72 °F (Oct 18, 3:50 PM)100% (Oct 6, 7:50 AM)30.18 "Hg (Oct 6, 7:50 AM)
Low46 °F (Oct 12, 4:20 AM)64% (Oct 18, 2:50 PM)29.65 "Hg (Oct 7, 8:20 AM)
Average59 °F90%29.90 "Hg
* Reported Oct 5 7:50 PM — Oct 20 7:20 PM, Homburg (Saar), Weather by CustomWeather, © 2014

Note: Actual official high and low records may vary slightly from our data, if they occured in-between our weather recording intervals... More about our weather records

Advertising

Homburg (Saar) weather history for previous 24 hours

 ConditionsComfort  
Time TempWeatherWind HumidityBarometerVisibility
7:20 PM
Oct 20
59 °FDrizzle. Partly sunny.7 mph88%30.04 "HgN/A
6:50 PM59 °FPartly sunny.7 mph88%30.04 "HgN/A
6:20 PM59 °FBroken clouds.8 mph82%30.07 "HgN/A
5:50 PM59 °FPartly sunny.6 mph88%30.07 "HgN/A
5:20 PM61 °FLight rain. Scattered clouds.6 mph83%30.07 "HgN/A
4:50 PM61 °FPartly sunny.10 mph83%30.07 "HgN/A
4:20 PM61 °FPartly sunny.8 mph83%30.07 "HgN/A
3:50 PM63 °FScattered clouds.10 mph77%30.09 "HgN/A
3:20 PM63 °FPartly sunny.9 mph83%30.09 "HgN/A
2:50 PM63 °FBroken clouds.6 mph83%30.09 "HgN/A
2:20 PM61 °FPartly sunny.7 mph88%30.09 "HgN/A
1:50 PM61 °FPartly sunny.8 mph88%30.09 "HgN/A
1:20 PM63 °FBroken clouds.10 mph83%30.12 "HgN/A
12:50 PM61 °FBroken clouds.9 mph88%30.12 "HgN/A
12:20 PM61 °FBroken clouds.8 mph88%30.12 "HgN/A
11:50 AM61 °FBroken clouds.9 mph88%30.12 "HgN/A
11:20 AM61 °FPartly sunny.7 mph94%30.12 "HgN/A
10:50 AM59 °FBroken clouds.7 mph100%30.12 "HgN/A
10:20 AM59 °FPartly sunny.8 mph94%30.12 "Hg6 mi
9:50 AM59 °FLight rain. Mostly cloudy.9 mph94%30.12 "HgN/A
9:20 AM59 °FMostly cloudy.8 mph94%30.12 "HgN/A
8:50 AM59 °FMostly cloudy.7 mph94%30.12 "HgN/A
8:20 AM59 °FPassing clouds.7 mph94%30.12 "HgN/A
7:50 AM59 °FMostly cloudy.8 mph94%30.12 "HgN/A
5:20 AM57 °FPartly cloudy.3 mph100%30.12 "HgN/A
4:50 AM57 °FPartly cloudy.5 mph100%30.12 "HgN/A
12:50 AM61 °FClear.7 mph94%30.12 "Hg10 mi
12:20 AM61 °FClear.9 mph88%30.12 "Hg10 mi
11:50 PM
Oct 19
61 °FClear.9 mph94%30.12 "Hg10 mi
8:20 PM64 °FSunny.7 mph83%30.12 "Hg10 mi
Weather by CustomWeather, © 2014

See weather overviewHow to use our weather pages